Location: Kuffner-Sternwarte
(48.2130°N, 16.2960°E)
Time: 23:01:48
(UTC+02:00)

ISS - Visible Passes

Search period start: 22 April 2026 00:00
Search period end: 02 May 2026 00:00
Orbit: 415 x 425 km, 51.6° (Epoch: 22 April)

Date Brightness Start Highest point End Pass type
(mag) Time Alt. Az. Time Alt. Az. Time Alt. Az.
22 Apr -1.9 03:56:14 19° SSE 03:56:55 21° SE 03:59:31 10° E visible
23 Apr -1.1 03:10:40 13° ESE 03:10:40 13° ESE 03:11:32 10° ESE visible
23 Apr -3.6 04:43:38 17° SW 04:46:04 68° SSE 04:49:27 10° ENE visible
24 Apr -3.2 03:57:59 37° S 03:58:46 46° SSE 04:02:02 10° ENE visible
25 Apr -2.2 03:12:18 27° ESE 03:12:18 27° ESE 03:14:32 10° E visible
25 Apr -3.5 04:45:15 13° W 04:48:10 67° NNW 04:51:33 10° ENE visible
26 Apr -0.9 02:26:34 12° E 02:26:34 12° E 02:26:51 10° E visible
26 Apr -3.8 03:59:30 36° WSW 04:00:45 87° NNW 04:04:08 10° ENE visible
27 Apr -3.5 03:13:43 61° ESE 03:13:43 61° ESE 03:16:43 10° ENE visible
27 Apr -2.9 04:47:02 10° W 04:50:18 47° N 04:53:36 10° ENE visible
28 Apr -1.6 02:27:53 21° E 02:27:53 21° E 02:29:15 10° ENE visible
28 Apr -3.2 04:00:50 22° W 04:02:49 54° NNW 04:06:09 10° ENE visible
29 Apr -3.6 03:14:58 60° WNW 03:15:19 66° NNW 03:18:41 10° ENE visible
29 Apr -2.7 04:49:11 10° WNW 04:52:26 45° N 04:55:43 10° ENE visible
30 Apr -2.4 02:29:05 36° ENE 02:29:05 36° ENE 02:31:14 10° ENE visible
30 Apr -2.7 04:02:01 13° WNW 04:04:53 44° N 04:08:10 10° ENE visible
1 May -1.0 01:43:11 14° ENE 01:43:11 14° ENE 01:43:45 10° ENE visible
1 May -2.9 03:16:07 31° WNW 03:17:20 47° N 03:20:38 10° ENE visible
1 May -3.0 04:51:10 10° WNW 04:54:29 56° NNE 04:57:49 10° E visible
